Time,TemperatureF,DewpointF,PressureIn,WindDirection,WindDirectionDegrees,WindSpeedMPH,WindSpeedGustMPH,Humidity,HourlyPrecipIn,Conditions,Clouds,dailyrainin,SoftwareType,DateUTC
2013-07-19 00:02:00,72.2,70.1,30.02,NE,49,0.0,0.0,93,0.00,,,0.00,WeatherCatV1.15B25,2013-07-19 05:02:00,
2013-07-19 00:07:00,72.2,70.1,30.02,NE,49,0.0,1.0,93,0.00,,,0.00,WeatherCatV1.15B25,2013-07-19 05:07:00,
2013-07-19 00:12:00,72.2,70.1,30.02,NE,49,0.0,0.0,93,0.00,,,0.00,WeatherCatV1.15B25,2013-07-19 05:12:00,
2013-07-19 00:17:00,72.1,70.3,30.02,NE,49,0.0,0.0,94,0.00,,,0.00,WeatherCatV1.15B25,2013-07-19 05:17:00,
2013-07-19 00:22:00,72.1,70.0,30.02,NE,49,0.0,0.0,93,0.00,,,0.00,WeatherCatV1.15B25,2013-07-19 05:22:00,
2013-07-19 00:27:00,72.0,69.9,30.02,NE,49,0.0,0.0,93,0.00,,,0.00,WeatherCatV1.15B25,2013-07-19 05:27:00,
2013-07-19 00:32:00,71.9,70.1,30.02,NE,49,0.0,0.0,94,0.00,,,0.00,WeatherCatV1.15B25,2013-07-19 05:32:00,
2013-07-19 00:37:00,72.0,70.2,30.03,NE,49,0.0,1.0,94,0.00,,,0.00,WeatherCatV1.15B25,2013-07-19 05:37:00,
2013-07-19 00:42:00,72.0,70.2,30.02,NE,49,0.0,0.0,94,0.00,,,0.00,WeatherCatV1.15B25,2013-07-19 05:42:00,
2013-07-19 00:47:00,71.9,70.1,30.02,NE,49,0.0,0.0,94,0.00,,,0.00,WeatherCatV1.15B25,2013-07-19 05:47:00,
2013-07-19 00:52:00,71.9,70.1,30.02,NE,49,0.0,0.0,94,0.00,,,0.00,WeatherCatV1.15B25,2013-07-19 05:52:00,
2013-07-19 00:57:00,71.8,70.0,30.02,NE,49,0.0,0.0,94,0.00,,,0.00,WeatherCatV1.15B25,2013-07-19 05:57:00,
2013-07-19 01:02:00,71.8,70.0,30.02,NE,49,0.0,0.0,94,0.00,,,0.00,WeatherCatV1.15B25,2013-07-19 06:02:00,
2013-07-19 01:07:00,71.7,69.9,30.02,NE,49,0.0,0.0,94,0.00,,,0.00,WeatherCatV1.15B25,2013-07-19 06:07:00,
2013-07-19 01:12:00,71.7,70.2,30.03,NE,49,0.0,0.0,95,0.00,,,0.00,WeatherCatV1.15B25,2013-07-19 06:12:00,
2013-07-19 01:17:00,71.6,70.1,30.03,NE,49,0.0,0.0,95,0.00,,,0.00,WeatherCatV1.15B25,2013-07-19 06:17:00,
2013-07-19 01:22:00,71.6,70.1,30.03,NE,49,0.0,0.0,95,0.00,,,0.00,WeatherCatV1.15B25,2013-07-19 06:22:00,
2013-07-19 01:27:00,71.5,70.0,30.03,NE,49,0.0,0.0,95,0.00,,,0.00,WeatherCatV1.15B25,2013-07-19 06:27:00,
2013-07-19 01:32:00,71.5,70.0,30.03,NE,49,0.0,0.0,95,0.00,,,0.00,WeatherCatV1.15B25,2013-07-19 06:32:00,
2013-07-19 01:37:00,71.4,69.9,30.03,NE,49,0.0,0.0,95,0.00,,,0.00,WeatherCatV1.15B25,2013-07-19 06:37:00,
2013-07-19 01:42:00,71.3,69.8,30.02,NE,49,0.0,0.0,95,0.00,,,0.00,WeatherCatV1.15B25,2013-07-19 06:42:00,
2013-07-19 01:47:00,71.3,69.8,30.02,NE,49,0.0,0.0,95,0.00,,,0.00,WeatherCatV1.15B25,2013-07-19 06:47:00,
2013-07-19 01:52:00,71.2,69.7,30.02,NE,49,0.0,0.0,95,0.00,,,0.00,WeatherCatV1.15B25,2013-07-19 06:52:00,
2013-07-19 01:57:00,71.2,69.7,30.02,NE,49,0.0,0.0,95,0.00,,,0.00,WeatherCatV1.15B25,2013-07-19 06:57:00,
2013-07-19 02:02:00,71.1,69.9,30.02,NE,49,0.0,0.0,96,0.00,,,0.00,WeatherCatV1.15B25,2013-07-19 07:02:00,
2013-07-19 02:07:00,71.0,69.8,30.02,NE,49,0.0,0.0,96,0.00,,,0.00,WeatherCatV1.15B25,2013-07-19 07:07:00,
2013-07-19 02:12:00,71.0,69.8,30.02,NE,49,0.0,0.0,96,0.00,,,0.00,WeatherCatV1.15B25,2013-07-19 07:12:00,
2013-07-19 02:17:00,71.0,69.8,30.02,NE,49,0.0,0.0,96,0.00,,,0.00,WeatherCatV1.15B25,2013-07-19 07:17:00,
2013-07-19 02:23:00,71.0,69.8,30.02,NE,49,0.0,0.0,96,0.00,,,0.00,WeatherCatV1.15B25,2013-07-19 07:23:00,
2013-07-19 02:28:00,71.0,69.8,30.02,NE,49,0.0,0.0,96,0.00,,,0.00,WeatherCatV1.15B25,2013-07-19 07:28:00,
2013-07-19 02:33:00,71.0,69.8,30.02,NE,49,0.0,0.0,96,0.00,,,0.00,WeatherCatV1.15B25,2013-07-19 07:33:00,
2013-07-19 02:38:00,71.0,69.8,30.03,NE,49,0.0,0.0,96,0.00,,,0.00,WeatherCatV1.15B25,2013-07-19 07:38:00,
2013-07-19 02:43:00,71.0,69.8,30.03,NE,49,0.0,0.0,96,0.00,,,0.00,WeatherCatV1.15B25,2013-07-19 07:43:00,
2013-07-19 02:48:00,71.0,70.1,30.02,NE,49,0.0,0.0,97,0.00,,,0.00,WeatherCatV1.15B25,2013-07-19 07:48:00,
2013-07-19 02:53:00,70.9,69.7,30.03,NE,49,0.0,0.0,96,0.00,,,0.00,WeatherCatV1.15B25,2013-07-19 07:53:00,
2013-07-19 02:58:00,70.9,69.7,30.02,NE,49,0.0,0.0,96,0.00,,,0.00,WeatherCatV1.15B25,2013-07-19 07:58:00,
2013-07-19 03:03:00,70.9,69.7,30.02,NE,49,0.0,0.0,96,0.00,,,0.00,WeatherCatV1.15B25,2013-07-19 08:03:00,
2013-07-19 03:08:00,70.9,69.7,30.02,NE,49,0.0,0.0,96,0.00,,,0.00,WeatherCatV1.15B25,2013-07-19 08:08:00,
2013-07-19 03:13:00,70.9,70.0,30.02,NE,49,0.0,0.0,97,0.00,,,0.00,WeatherCatV1.15B25,2013-07-19 08:13:00,
2013-07-19 03:18:00,70.9,70.0,30.01,NE,49,0.0,0.0,97,0.00,,,0.00,WeatherCatV1.15B25,2013-07-19 08:18:00,
2013-07-19 03:23:00,70.8,69.9,30.01,NE,49,0.0,0.0,97,0.00,,,0.00,WeatherCatV1.15B25,2013-07-19 08:23:00,
2013-07-19 03:28:00,70.8,69.9,30.01,NE,49,0.0,0.0,97,0.00,,,0.00,WeatherCatV1.15B25,2013-07-19 08:28:00,
2013-07-19 03:33:00,70.8,69.9,30.01,NE,49,0.0,0.0,97,0.00,,,0.00,WeatherCatV1.15B25,2013-07-19 08:33:00,
2013-07-19 03:38:00,70.8,69.9,30.01,NE,49,0.0,0.0,97,0.00,,,0.00,WeatherCatV1.15B25,2013-07-19 08:38:00,
2013-07-19 03:44:00,70.7,69.8,30.01,NE,49,0.0,0.0,97,0.00,,,0.00,WeatherCatV1.15B25,2013-07-19 08:44:00,
2013-07-19 03:49:00,70.7,69.8,30.01,NE,49,0.0,0.0,97,0.00,,,0.00,WeatherCatV1.15B25,2013-07-19 08:49:00,
2013-07-19 03:54:00,70.6,69.7,30.01,NE,49,0.0,0.0,97,0.00,,,0.00,WeatherCatV1.15B25,2013-07-19 08:54:00,
2013-07-19 03:59:00,70.5,69.6,30.01,NE,49,0.0,0.0,97,0.00,,,0.00,WeatherCatV1.15B25,2013-07-19 08:59:00,
2013-07-19 04:04:00,70.5,69.6,30.01,NE,49,0.0,0.0,97,0.00,,,0.00,WeatherCatV1.15B25,2013-07-19 09:04:00,
2013-07-19 04:09:00,70.4,69.5,30.01,NE,49,0.0,0.0,97,0.00,,,0.00,WeatherCatV1.15B25,2013-07-19 09:09:00,
2013-07-19 04:14:00,70.4,69.5,30.01,NE,49,0.0,0.0,97,0.00,,,0.00,WeatherCatV1.15B25,2013-07-19 09:14:00,
2013-07-19 04:19:00,70.3,69.4,30.01,NE,49,0.0,0.0,97,0.00,,,0.00,WeatherCatV1.15B25,2013-07-19 09:19:00,
2013-07-19 04:24:00,70.3,69.4,30.01,NE,49,0.0,0.0,97,0.00,,,0.00,WeatherCatV1.15B25,2013-07-19 09:24:00,
2013-07-19 04:29:00,70.3,69.4,30.01,NE,49,0.0,0.0,97,0.00,,,0.00,WeatherCatV1.15B25,2013-07-19 09:29:00,
2013-07-19 04:34:00,70.2,69.3,30.01,NE,49,0.0,0.0,97,0.00,,,0.00,WeatherCatV1.15B25,2013-07-19 09:34:00,
2013-07-19 04:39:00,70.3,69.4,30.01,NE,49,0.0,0.0,97,0.00,,,0.00,WeatherCatV1.15B25,2013-07-19 09:39:00,
2013-07-19 04:44:00,70.2,69.3,30.01,NE,49,0.0,0.0,97,0.00,,,0.00,WeatherCatV1.15B25,2013-07-19 09:44:00,
2013-07-19 04:49:00,70.2,69.3,30.01,NE,49,0.0,0.0,97,0.00,,,0.00,WeatherCatV1.15B25,2013-07-19 09:49:00,
2013-07-19 04:54:00,70.2,69.3,30.01,NE,49,0.0,0.0,97,0.00,,,0.00,WeatherCatV1.15B25,2013-07-19 09:54:00,
2013-07-19 04:59:00,70.2,69.3,30.00,NE,49,0.0,0.0,97,0.00,,,0.00,WeatherCatV1.15B25,2013-07-19 09:59:00,
2013-07-19 05:04:00,70.2,69.6,30.00,NE,49,0.0,0.0,98,0.00,,,0.00,WeatherCatV1.15B25,2013-07-19 10:04:00,
2013-07-19 05:09:00,70.2,69.6,30.01,NE,49,0.0,0.0,98,0.00,,,0.00,WeatherCatV1.15B25,2013-07-19 10:09:00,
2013-07-19 05:14:00,70.3,69.7,30.01,NE,49,0.0,0.0,98,0.00,,,0.00,WeatherCatV1.15B25,2013-07-19 10:14:00,
2013-07-19 05:19:00,70.3,69.7,30.01,NE,49,0.0,0.0,98,0.00,,,0.00,WeatherCatV1.15B25,2013-07-19 10:19:00,
2013-07-19 05:24:00,70.4,69.8,30.01,NE,49,0.0,0.0,98,0.00,,,0.00,WeatherCatV1.15B25,2013-07-19 10:24:00,
2013-07-19 05:29:00,70.5,69.9,30.01,NE,49,0.0,0.0,98,0.00,,,0.00,WeatherCatV1.15B25,2013-07-19 10:29:00,
2013-07-19 05:34:00,70.6,70.0,30.01,NE,49,0.0,0.0,98,0.00,,,0.00,WeatherCatV1.15B25,2013-07-19 10:34:00,
2013-07-19 05:39:00,70.8,70.2,30.01,NE,49,0.0,0.0,98,0.00,,,0.00,WeatherCatV1.15B25,2013-07-19 10:39:00,
2013-07-19 05:44:00,71.0,70.4,30.01,NE,49,0.0,0.0,98,0.00,,,0.00,WeatherCatV1.15B25,2013-07-19 10:44:00,
2013-07-19 05:49:00,71.1,70.5,30.01,NE,49,0.0,0.0,98,0.00,,,0.00,WeatherCatV1.15B25,2013-07-19 10:49:00,
2013-07-19 05:54:00,71.2,70.6,30.01,NE,49,0.0,0.0,98,0.00,,,0.00,WeatherCatV1.15B25,2013-07-19 10:54:00,
2013-07-19 05:59:00,71.2,70.6,30.01,NE,49,0.0,0.0,98,0.00,,,0.00,WeatherCatV1.15B25,2013-07-19 10:59:00,
2013-07-19 06:05:00,71.2,70.6,30.01,NE,49,0.0,0.0,98,0.00,,,0.00,WeatherCatV1.15B25,2013-07-19 11:05:00,
2013-07-19 06:10:00,71.0,70.4,30.01,NE,49,0.0,1.0,98,0.00,,,0.00,WeatherCatV1.15B25,2013-07-19 11:10:00,
2013-07-19 06:15:00,70.8,70.2,30.01,NE,49,0.0,0.0,98,0.00,,,0.00,WeatherCatV1.15B25,2013-07-19 11:15:00,
2013-07-19 06:20:00,70.6,70.0,30.01,NE,49,0.0,0.0,98,0.00,,,0.00,WeatherCatV1.15B25,2013-07-19 11:20:00,
2013-07-19 06:25:00,70.5,69.9,30.01,NE,49,0.0,1.0,98,0.00,,,0.00,WeatherCatV1.15B25,2013-07-19 11:25:00,
2013-07-19 06:30:00,70.4,69.8,30.01,NE,49,0.0,0.0,98,0.00,,,0.00,WeatherCatV1.15B25,2013-07-19 11:30:00,
2013-07-19 06:35:00,70.3,69.7,30.01,NE,49,0.0,0.0,98,0.00,,,0.00,WeatherCatV1.15B25,2013-07-19 11:35:00,
2013-07-19 06:40:00,70.3,69.7,30.01,NE,49,0.0,0.0,98,0.00,,,0.00,WeatherCatV1.15B25,2013-07-19 11:40:00,
2013-07-19 06:45:00,70.3,69.7,30.01,NE,49,0.0,0.0,98,0.00,,,0.00,WeatherCatV1.15B25,2013-07-19 11:45:00,
2013-07-19 06:50:00,70.3,69.7,30.01,NE,49,0.0,0.0,98,0.00,,,0.00,WeatherCatV1.15B25,2013-07-19 11:50:00,
2013-07-19 06:55:00,70.4,69.8,30.01,NE,49,0.0,0.0,98,0.00,,,0.00,WeatherCatV1.15B25,2013-07-19 11:55:00,
2013-07-19 07:00:00,70.6,70.3,30.01,NE,49,0.0,0.0,99,0.00,,,0.00,WeatherCatV1.15B25,2013-07-19 12:00:00,
2013-07-19 07:05:00,70.8,70.2,30.01,NE,49,0.0,0.0,98,0.00,,,0.00,WeatherCatV1.15B25,2013-07-19 12:05:00,
2013-07-19 07:10:00,71.1,70.8,30.02,NE,49,0.0,1.0,99,0.00,,,0.01,WeatherCatV1.15B25,2013-07-19 12:10:00,
2013-07-19 07:15:00,71.3,71.0,30.02,NE,49,0.0,1.0,99,0.00,,,0.01,WeatherCatV1.15B25,2013-07-19 12:15:00,
2013-07-19 07:20:00,71.6,71.3,30.02,NE,49,0.0,0.0,99,0.00,,,0.01,WeatherCatV1.15B25,2013-07-19 12:20:00,
2013-07-19 07:26:00,71.9,71.6,30.02,NE,49,0.0,1.0,99,0.00,,,0.01,WeatherCatV1.15B25,2013-07-19 12:26:00,
2013-07-19 07:31:00,72.2,71.9,30.02,NE,49,0.0,1.0,99,0.00,,,0.01,WeatherCatV1.15B25,2013-07-19 12:31:00,
2013-07-19 07:36:00,72.5,72.2,30.02,NE,49,0.0,2.0,99,0.00,,,0.01,WeatherCatV1.15B25,2013-07-19 12:36:00,
2013-07-19 07:41:00,72.7,72.4,30.02,NE,49,0.0,0.0,99,0.00,,,0.01,WeatherCatV1.15B25,2013-07-19 12:41:00,
2013-07-19 07:46:00,72.8,72.5,30.02,NE,49,0.0,0.0,99,0.00,,,0.01,WeatherCatV1.15B25,2013-07-19 12:46:00,
2013-07-19 07:51:00,73.0,72.7,30.02,NE,49,0.0,1.0,99,0.00,,,0.01,WeatherCatV1.15B25,2013-07-19 12:51:00,
2013-07-19 07:56:00,73.2,72.9,30.03,NE,49,0.0,0.0,99,0.00,,,0.01,WeatherCatV1.15B25,2013-07-19 12:56:00,
2013-07-19 08:01:00,73.3,73.0,30.03,NE,49,0.0,1.0,99,0.00,,,0.01,WeatherCatV1.15B25,2013-07-19 13:01:00,
2013-07-19 08:06:00,73.5,73.2,30.03,NE,49,0.0,1.0,99,0.00,,,0.01,WeatherCatV1.15B25,2013-07-19 13:06:00,
2013-07-19 08:11:00,73.7,73.4,30.03,WNW,296,0.0,4.0,99,0.00,,,0.01,WeatherCatV1.15B25,2013-07-19 13:11:00,
2013-07-19 08:16:00,73.8,73.5,30.03,WNW,297,0.0,2.0,99,0.00,,,0.01,WeatherCatV1.15B25,2013-07-19 13:16:00,
2013-07-19 08:21:00,74.0,73.7,30.03,WNW,297,0.0,0.0,99,0.00,,,0.01,WeatherCatV1.15B25,2013-07-19 13:21:00,
2013-07-19 08:26:00,74.1,73.8,30.04,WNW,297,0.0,0.0,99,0.00,,,0.01,WeatherCatV1.15B25,2013-07-19 13:26:00,
2013-07-19 08:31:00,74.1,73.8,30.04,WNW,297,0.0,0.0,99,0.00,,,0.01,WeatherCatV1.15B25,2013-07-19 13:31:00,
2013-07-19 08:34:00,74.2,73.9,30.04,WNW,297,0.0,0.0,99,0.00,,,0.01,WeatherCatV1.15B25,2013-07-19 13:34:00,
2013-07-19 08:39:00,74.2,73.9,30.04,WNW,297,0.0,1.0,99,0.00,,,0.01,WeatherCatV1.15B25,2013-07-19 13:39:00,
2013-07-19 08:44:00,74.2,73.9,30.04,WNW,297,0.0,0.0,99,0.00,,,0.01,WeatherCatV1.15B25,2013-07-19 13:44:00,
2013-07-19 08:49:00,74.4,74.1,30.04,WNW,297,0.0,0.0,99,0.00,,,0.01,WeatherCatV1.15B25,2013-07-19 13:49:00,
2013-07-19 08:54:00,75.0,74.7,30.04,WNW,297,1.0,2.0,99,0.00,,,0.01,WeatherCatV1.15B25,2013-07-19 13:54:00,
2013-07-19 08:59:00,75.1,74.8,30.04,WNW,297,2.0,2.0,99,0.00,,,0.01,WeatherCatV1.15B25,2013-07-19 13:59:00,
2013-07-19 09:04:00,75.1,74.8,30.04,WNW,297,0.0,1.0,99,0.00,,,0.01,WeatherCatV1.15B25,2013-07-19 14:04:00,
2013-07-19 09:09:00,74.9,74.6,30.04,WNW,297,0.0,0.0,99,0.00,,,0.01,WeatherCatV1.15B25,2013-07-19 14:09:00,
2013-07-19 09:14:00,75.2,74.9,30.04,WNW,297,1.0,1.0,99,0.00,,,0.01,WeatherCatV1.15B25,2013-07-19 14:14:00,
2013-07-19 09:19:00,75.5,74.9,30.04,NE,37,0.0,1.0,98,0.00,,,0.01,WeatherCatV1.15B25,2013-07-19 14:19:00,
2013-07-19 09:24:00,76.1,75.5,30.04,NE,37,0.0,2.0,98,0.00,,,0.01,WeatherCatV1.15B25,2013-07-19 14:24:00,
2013-07-19 09:29:00,76.5,75.6,30.04,NE,37,0.0,0.0,97,0.00,,,0.01,WeatherCatV1.15B25,2013-07-19 14:29:00,
2013-07-19 09:34:00,77.1,75.6,30.04,NE,37,0.0,0.0,95,0.00,,,0.01,WeatherCatV1.15B25,2013-07-19 14:34:00,
2013-07-19 09:39:00,78.0,75.5,30.03,NE,37,0.0,0.0,92,0.00,,,0.01,WeatherCatV1.15B25,2013-07-19 14:39:00,
2013-07-19 09:44:00,79.2,75.7,30.04,NE,37,1.0,1.0,89,0.00,,,0.01,WeatherCatV1.15B25,2013-07-19 14:44:00,
2013-07-19 09:50:00,79.5,75.3,30.03,NE,37,0.0,0.0,87,0.00,,,0.01,WeatherCatV1.15B25,2013-07-19 14:50:00,
2013-07-19 09:55:00,79.8,74.9,30.03,NE,37,0.0,0.0,85,0.00,,,0.01,WeatherCatV1.15B25,2013-07-19 14:55:00,
2013-07-19 10:00:00,80.0,74.4,30.03,NE,37,0.0,0.0,83,0.00,,,0.01,WeatherCatV1.15B25,2013-07-19 15:00:00,
2013-07-19 10:05:00,80.3,74.3,30.03,NE,37,0.0,1.0,82,0.00,,,0.01,WeatherCatV1.15B25,2013-07-19 15:05:00,
2013-07-19 10:10:00,81.2,74.4,30.03,NE,37,0.0,0.0,80,0.00,,,0.01,WeatherCatV1.15B25,2013-07-19 15:10:00,
2013-07-19 10:15:00,81.9,74.3,30.03,ENE,72,0.0,1.0,78,0.00,,,0.01,WeatherCatV1.15B25,2013-07-19 15:15:00,
2013-07-19 10:20:00,82.5,74.5,30.03,East,90,1.0,1.0,77,0.00,,,0.01,WeatherCatV1.15B25,2013-07-19 15:20:00,
2013-07-19 10:25:00,82.7,74.3,30.03,ENE,73,2.0,4.0,76,0.00,,,0.01,WeatherCatV1.15B25,2013-07-19 15:25:00,
2013-07-19 10:30:00,83.3,75.3,30.03,ENE,73,2.0,2.0,77,0.00,,,0.01,WeatherCatV1.15B25,2013-07-19 15:30:00,
2013-07-19 10:35:00,83.5,73.9,30.03,ENE,74,0.0,1.0,73,0.00,,,0.01,WeatherCatV1.15B25,2013-07-19 15:35:00,
2013-07-19 10:40:00,83.5,74.7,30.03,ENE,74,0.0,0.0,75,0.00,,,0.01,WeatherCatV1.15B25,2013-07-19 15:40:00,
2013-07-19 10:45:00,83.8,75.0,30.03,ENE,74,1.0,1.0,75,0.00,,,0.01,WeatherCatV1.15B25,2013-07-19 15:45:00,
2013-07-19 10:50:00,84.2,74.6,30.03,ENE,74,2.0,2.0,73,0.00,,,0.01,WeatherCatV1.15B25,2013-07-19 15:50:00,
2013-07-19 10:55:00,84.6,74.1,30.03,ESE,114,0.0,1.0,71,0.00,,,0.01,WeatherCatV1.15B25,2013-07-19 15:55:00,
2013-07-19 11:00:00,84.8,73.9,30.02,ESE,115,0.0,2.0,70,0.00,,,0.01,WeatherCatV1.15B25,2013-07-19 16:00:00,
2013-07-19 11:05:00,85.1,74.2,30.02,East,100,0.0,1.0,70,0.00,,,0.01,WeatherCatV1.15B25,2013-07-19 16:05:00,
2013-07-19 11:10:00,85.6,73.4,30.02,SSW,193,0.0,2.0,67,0.00,,,0.01,WeatherCatV1.15B25,2013-07-19 16:10:00,
2013-07-19 11:15:00,86.0,74.2,30.02,ESE,111,0.0,1.0,68,0.00,,,0.01,WeatherCatV1.15B25,2013-07-19 16:15:00,
2013-07-19 11:20:00,85.9,74.1,30.02,ESE,112,0.0,2.0,68,0.00,,,0.01,WeatherCatV1.15B25,2013-07-19 16:20:00,
2013-07-19 11:25:00,85.3,73.9,30.02,ESE,112,0.0,0.0,69,0.00,,,0.01,WeatherCatV1.15B25,2013-07-19 16:25:00,
2013-07-19 11:30:00,85.4,74.0,30.02,ESE,112,1.0,1.0,69,0.00,,,0.01,WeatherCatV1.15B25,2013-07-19 16:30:00,
2013-07-19 11:35:00,86.2,74.8,30.01,ESE,112,0.0,1.0,69,0.00,,,0.01,WeatherCatV1.15B25,2013-07-19 16:35:00,
2013-07-19 11:40:00,86.8,74.0,30.01,ESE,112,0.0,4.0,66,0.00,,,0.01,WeatherCatV1.15B25,2013-07-19 16:40:00,
2013-07-19 11:45:00,87.4,73.7,30.01,ESE,112,0.0,1.0,64,0.00,,,0.01,WeatherCatV1.15B25,2013-07-19 16:45:00,
2013-07-19 11:50:00,88.4,75.1,30.01,ESE,111,0.0,2.0,65,0.00,,,0.01,WeatherCatV1.15B25,2013-07-19 16:50:00,
2013-07-19 11:55:00,88.7,72.0,30.01,ESE,109,0.0,1.0,58,0.00,,,0.01,WeatherCatV1.15B25,2013-07-19 16:55:00,
2013-07-19 12:00:00,88.8,72.6,30.01,ESE,111,1.0,2.0,59,0.00,,,0.01,WeatherCatV1.15B25,2013-07-19 17:00:00,
2013-07-19 12:05:00,89.2,73.5,30.01,ESE,107,1.0,4.0,60,0.00,,,0.01,WeatherCatV1.15B25,2013-07-19 17:05:00,
2013-07-19 12:10:00,89.2,72.5,30.01,ESE,105,0.0,4.0,58,0.00,,,0.01,WeatherCatV1.15B25,2013-07-19 17:10:00,
2013-07-19 12:15:00,89.3,71.5,30.00,SSW,203,1.0,3.0,56,0.00,,,0.01,WeatherCatV1.15B25,2013-07-19 17:15:00,
2013-07-19 12:21:00,89.9,72.6,30.00,South,181,0.0,2.0,57,0.00,,,0.01,WeatherCatV1.15B25,2013-07-19 17:21:00,
2013-07-19 12:26:00,89.8,72.0,30.00,ESE,105,0.0,2.0,56,0.00,,,0.01,WeatherCatV1.15B25,2013-07-19 17:26:00,
2013-07-19 12:31:00,89.4,72.1,30.00,ESE,104,0.0,1.0,57,0.00,,,0.01,WeatherCatV1.15B25,2013-07-19 17:31:00,
2013-07-19 12:36:00,89.2,73.0,30.00,SE,144,1.0,2.0,59,0.00,,,0.01,WeatherCatV1.15B25,2013-07-19 17:36:00,
2013-07-19 12:41:00,88.4,71.2,30.00,East,94,0.0,1.0,57,0.00,,,0.01,WeatherCatV1.15B25,2013-07-19 17:41:00,
2013-07-19 12:46:00,88.7,71.5,29.99,South,189,0.0,2.0,57,0.00,,,0.01,WeatherCatV1.15B25,2013-07-19 17:46:00,
2013-07-19 12:51:00,89.1,71.8,29.99,South,189,1.0,2.0,57,0.00,,,0.01,WeatherCatV1.15B25,2013-07-19 17:51:00,
2013-07-19 12:56:00,89.2,71.9,29.99,South,189,0.0,0.0,57,0.00,,,0.01,WeatherCatV1.15B25,2013-07-19 17:56:00,
2013-07-19 13:01:00,89.2,71.4,29.99,SSW,207,0.0,2.0,56,0.00,,,0.01,WeatherCatV1.15B25,2013-07-19 18:01:00,
2013-07-19 13:06:00,89.1,71.8,29.99,SW,236,2.0,2.0,57,0.00,,,0.01,WeatherCatV1.15B25,2013-07-19 18:06:00,
2013-07-19 13:11:00,89.5,71.7,29.99,WNW,290,1.0,2.0,56,0.00,,,0.01,WeatherCatV1.15B25,2013-07-19 18:11:00,
2013-07-19 13:16:00,89.2,70.9,29.99,WNW,290,0.0,1.0,55,0.00,,,0.01,WeatherCatV1.15B25,2013-07-19 18:16:00,
2013-07-19 13:21:00,88.8,70.5,29.99,WNW,290,0.0,1.0,55,0.00,,,0.01,WeatherCatV1.15B25,2013-07-19 18:21:00,
2013-07-19 13:26:00,88.4,71.7,29.98,WNW,290,0.0,0.0,58,0.00,,,0.01,WeatherCatV1.15B25,2013-07-19 18:26:00,
2013-07-19 13:31:00,88.8,71.0,29.98,WNW,290,0.0,1.0,56,0.00,,,0.01,WeatherCatV1.15B25,2013-07-19 18:31:00,
2013-07-19 13:36:00,89.2,69.8,29.98,WSW,240,2.0,2.0,53,0.00,,,0.01,WeatherCatV1.15B25,2013-07-19 18:36:00,
2013-07-19 13:41:00,90.0,70.0,29.97,WNW,302,0.0,4.0,52,0.00,,,0.01,WeatherCatV1.15B25,2013-07-19 18:41:00,
2013-07-19 13:46:00,90.9,70.8,29.97,WNW,302,2.0,2.0,52,0.00,,,0.01,WeatherCatV1.15B25,2013-07-19 18:46:00,
2013-07-19 13:51:00,90.8,70.7,29.97,NW,307,4.0,4.0,52,0.00,,,0.01,WeatherCatV1.15B25,2013-07-19 18:51:00,
2013-07-19 13:56:00,90.0,70.0,29.96,NNE,17,2.0,5.0,52,0.00,,,0.01,WeatherCatV1.15B25,2013-07-19 18:56:00,
2013-07-19 14:01:00,89.5,71.2,29.96,NNE,17,0.0,1.0,55,0.00,,,0.01,WeatherCatV1.15B25,2013-07-19 19:01:00,
2013-07-19 14:06:00,89.9,71.0,29.96,SE,140,0.0,4.0,54,0.00,,,0.01,WeatherCatV1.15B25,2013-07-19 19:06:00,
2013-07-19 14:11:00,90.0,70.5,29.96,East,80,1.0,4.0,53,0.00,,,0.01,WeatherCatV1.15B25,2013-07-19 19:11:00,
2013-07-19 14:16:00,89.8,70.9,29.96,ENE,58,2.0,5.0,54,0.00,,,0.01,WeatherCatV1.15B25,2013-07-19 19:16:00,
2013-07-19 14:21:00,90.0,71.1,29.96,ENE,64,0.0,5.0,54,0.00,,,0.01,WeatherCatV1.15B25,2013-07-19 19:21:00,
2013-07-19 14:26:00,90.7,71.2,29.95,ESE,107,0.0,1.0,53,0.00,,,0.01,WeatherCatV1.15B25,2013-07-19 19:26:00,
2013-07-19 14:31:00,91.7,71.0,29.95,East,92,1.0,1.0,51,0.00,,,0.01,WeatherCatV1.15B25,2013-07-19 19:31:00,
2013-07-19 14:36:00,91.8,71.0,29.95,ESE,123,0.0,0.0,51,0.00,,,0.01,WeatherCatV1.15B25,2013-07-19 19:36:00,
2013-07-19 14:41:00,92.2,71.4,29.95,SSW,194,0.0,3.0,51,0.00,,,0.01,WeatherCatV1.15B25,2013-07-19 19:41:00,
2013-07-19 14:46:00,92.7,70.1,29.95,SW,218,0.0,0.0,48,0.00,,,0.01,WeatherCatV1.15B25,2013-07-19 19:46:00,
2013-07-19 14:52:00,92.8,70.2,29.95,WSW,244,0.0,3.0,48,0.00,,,0.01,WeatherCatV1.15B25,2013-07-19 19:52:00,
2013-07-19 14:57:00,92.5,72.3,29.95,West,269,0.0,1.0,52,0.00,,,0.01,WeatherCatV1.15B25,2013-07-19 19:57:00,
2013-07-19 15:02:00,93.0,71.0,29.94,West,269,1.0,1.0,49,0.00,,,0.01,WeatherCatV1.15B25,2013-07-19 20:02:00,
2013-07-19 15:07:00,93.4,70.1,29.94,ESE,108,0.0,2.0,47,0.00,,,0.01,WeatherCatV1.15B25,2013-07-19 20:07:00,
2013-07-19 15:12:00,93.6,70.3,29.94,East,99,0.0,5.0,47,0.00,,,0.01,WeatherCatV1.15B25,2013-07-19 20:12:00,
2013-07-19 15:17:00,94.1,70.7,29.94,SSE,148,1.0,1.0,47,0.00,,,0.01,WeatherCatV1.15B25,2013-07-19 20:17:00,
2013-07-19 15:22:00,94.4,71.6,29.94,East,99,1.0,1.0,48,0.00,,,0.01,WeatherCatV1.15B25,2013-07-19 20:22:00,
2013-07-19 15:27:00,94.5,70.5,29.94,WNW,291,0.0,4.0,46,0.00,,,0.01,WeatherCatV1.15B25,2013-07-19 20:27:00,
2013-07-19 15:32:00,94.6,71.2,29.93,North,350,2.0,4.0,47,0.00,,,0.01,WeatherCatV1.15B25,2013-07-19 20:32:00,
2013-07-19 15:37:00,93.7,70.4,29.93,ESE,113,0.0,5.0,47,0.00,,,0.01,WeatherCatV1.15B25,2013-07-19 20:37:00,
2013-07-19 15:42:00,93.1,70.4,29.93,ESE,107,0.0,1.0,48,0.00,,,0.01,WeatherCatV1.15B25,2013-07-19 20:42:00,
2013-07-19 15:47:00,92.5,70.5,29.93,East,82,1.0,4.0,49,0.00,,,0.01,WeatherCatV1.15B25,2013-07-19 20:47:00,
2013-07-19 15:52:00,92.6,71.2,29.92,ENE,72,0.0,0.0,50,0.00,,,0.01,WeatherCatV1.15B25,2013-07-19 20:52:00,
2013-07-19 15:57:00,92.9,70.3,29.92,ENE,72,0.0,0.0,48,0.00,,,0.01,WeatherCatV1.15B25,2013-07-19 20:57:00,
2013-07-19 16:02:00,93.3,71.2,29.92,ENE,72,0.0,0.0,49,0.00,,,0.01,WeatherCatV1.15B25,2013-07-19 21:02:00,
2013-07-19 16:07:00,93.4,71.3,29.92,ENE,65,0.0,5.0,49,0.00,,,0.01,WeatherCatV1.15B25,2013-07-19 21:07:00,
2013-07-19 16:12:00,93.3,71.8,29.92,East,97,1.0,4.0,50,0.00,,,0.01,WeatherCatV1.15B25,2013-07-19 21:12:00,
2013-07-19 16:17:00,93.4,71.3,29.92,ESE,107,0.0,4.0,49,0.00,,,0.01,WeatherCatV1.15B25,2013-07-19 21:17:00,
2013-07-19 16:22:00,93.1,69.8,29.92,NE,46,0.0,0.0,47,0.00,,,0.01,WeatherCatV1.15B25,2013-07-19 21:22:00,
2013-07-19 16:27:00,93.3,71.2,29.91,ENE,63,1.0,4.0,49,0.00,,,0.01,WeatherCatV1.15B25,2013-07-19 21:27:00,
2013-07-19 16:32:00,92.9,70.3,29.91,NNE,29,1.0,4.0,48,0.00,,,0.01,WeatherCatV1.15B25,2013-07-19 21:32:00,
2013-07-19 16:37:00,92.2,70.8,29.91,NNE,28,1.0,1.0,50,0.00,,,0.01,WeatherCatV1.15B25,2013-07-19 21:37:00,
2013-07-19 16:42:00,92.2,70.2,29.90,NNE,33,1.0,4.0,49,0.00,,,0.01,WeatherCatV1.15B25,2013-07-19 21:42:00,
2013-07-19 16:47:00,91.7,69.8,29.90,NNE,15,2.0,4.0,49,0.00,,,0.01,WeatherCatV1.15B25,2013-07-19 21:47:00,
2013-07-19 16:52:00,91.5,70.2,29.90,NE,38,0.0,2.0,50,0.00,,,0.01,WeatherCatV1.15B25,2013-07-19 21:52:00,
2013-07-19 16:57:00,91.8,71.0,29.89,East,96,0.0,7.0,51,0.00,,,0.01,WeatherCatV1.15B25,2013-07-19 21:57:00,
2013-07-19 17:02:00,92.3,70.9,29.89,ENE,75,0.0,2.0,50,0.00,,,0.01,WeatherCatV1.15B25,2013-07-19 22:02:00,
2013-07-19 17:07:00,92.7,70.7,29.89,East,88,1.0,2.0,49,0.00,,,0.01,WeatherCatV1.15B25,2013-07-19 22:07:00,
2013-07-19 17:12:00,92.9,70.9,29.89,NE,53,0.0,1.0,49,0.00,,,0.01,WeatherCatV1.15B25,2013-07-19 22:12:00,
2013-07-19 17:17:00,92.7,70.1,29.88,SSW,209,0.0,3.0,48,0.00,,,0.01,WeatherCatV1.15B25,2013-07-19 22:17:00,
2013-07-19 17:23:00,93.3,70.6,29.88,SSW,194,0.0,2.0,48,0.00,,,0.01,WeatherCatV1.15B25,2013-07-19 22:23:00,
2013-07-19 17:28:00,93.3,70.6,29.89,East,101,5.0,5.0,48,0.00,,,0.01,WeatherCatV1.15B25,2013-07-19 22:28:00,
2013-07-19 17:33:00,93.3,69.4,29.88,ESE,111,0.0,4.0,46,0.00,,,0.01,WeatherCatV1.15B25,2013-07-19 22:33:00,
2013-07-19 17:38:00,93.8,70.5,29.88,ESE,103,0.0,0.0,47,0.00,,,0.01,WeatherCatV1.15B25,2013-07-19 22:38:00,
2013-07-19 17:43:00,94.3,69.6,29.88,SSE,155,0.0,2.0,45,0.00,,,0.01,WeatherCatV1.15B25,2013-07-19 22:43:00,
2013-07-19 17:48:00,93.8,68.5,29.88,East,89,2.0,3.0,44,0.00,,,0.01,WeatherCatV1.15B25,2013-07-19 22:48:00,
2013-07-19 17:53:00,93.3,70.0,29.88,ESE,110,1.0,2.0,47,0.00,,,0.01,WeatherCatV1.15B25,2013-07-19 22:53:00,
2013-07-19 17:58:00,93.1,69.8,29.88,SSE,155,1.0,1.0,47,0.00,,,0.01,WeatherCatV1.15B25,2013-07-19 22:58:00,
2013-07-19 18:03:00,93.3,70.6,29.87,SSE,155,1.0,1.0,48,0.00,,,0.01,WeatherCatV1.15B25,2013-07-19 23:03:00,
2013-07-19 18:08:00,93.5,70.8,29.87,SE,133,2.0,2.0,48,0.00,,,0.01,WeatherCatV1.15B25,2013-07-19 23:08:00,
2013-07-19 18:13:00,93.5,70.2,29.87,SE,127,1.0,5.0,47,0.00,,,0.01,WeatherCatV1.15B25,2013-07-19 23:13:00,
2013-07-19 18:18:00,93.2,68.6,29.87,ESE,102,0.0,5.0,45,0.00,,,0.01,WeatherCatV1.15B25,2013-07-19 23:18:00,
2013-07-19 18:23:00,93.1,69.2,29.87,ESE,102,0.0,1.0,46,0.00,,,0.01,WeatherCatV1.15B25,2013-07-19 23:23:00,
2013-07-19 18:28:00,93.3,68.7,29.87,ESE,102,0.0,1.0,45,0.00,,,0.01,WeatherCatV1.15B25,2013-07-19 23:28:00,
2013-07-19 18:33:00,92.6,68.1,29.87,ENE,75,0.0,2.0,45,0.00,,,0.01,WeatherCatV1.15B25,2013-07-19 23:33:00,
2013-07-19 18:38:00,92.0,68.8,29.87,ENE,75,0.0,1.0,47,0.00,,,0.01,WeatherCatV1.15B25,2013-07-19 23:38:00,
2013-07-19 18:43:00,92.2,69.6,29.87,ENE,75,0.0,1.0,48,0.00,,,0.01,WeatherCatV1.15B25,2013-07-19 23:43:00,
2013-07-19 18:48:00,92.6,68.7,29.87,NE,46,1.0,4.0,46,0.00,,,0.01,WeatherCatV1.15B25,2013-07-19 23:48:00,
2013-07-19 18:53:00,92.4,68.6,29.87,East,94,0.0,2.0,46,0.00,,,0.01,WeatherCatV1.15B25,2013-07-19 23:53:00,
2013-07-19 18:58:00,92.0,68.2,29.87,East,89,0.0,4.0,46,0.00,,,0.01,WeatherCatV1.15B25,2013-07-19 23:58:00,
2013-07-19 19:03:00,91.5,68.4,29.87,East,92,1.0,4.0,47,0.00,,,0.01,WeatherCatV1.15B25,2013-07-20 00:03:00,
2013-07-19 19:08:00,91.1,67.4,29.86,East,89,0.0,3.0,46,0.00,,,0.01,WeatherCatV1.15B25,2013-07-20 00:08:00,
2013-07-19 19:13:00,90.7,68.3,29.86,East,89,0.0,0.0,48,0.00,,,0.01,WeatherCatV1.15B25,2013-07-20 00:13:00,
2013-07-19 19:18:00,90.5,68.7,29.86,East,89,0.0,0.0,49,0.00,,,0.01,WeatherCatV1.15B25,2013-07-20 00:18:00,
2013-07-19 19:23:00,90.5,69.3,29.86,East,89,0.0,0.0,50,0.00,,,0.01,WeatherCatV1.15B25,2013-07-20 00:23:00,
2013-07-19 19:28:00,90.6,69.4,29.86,East,89,0.0,0.0,50,0.00,,,0.01,WeatherCatV1.15B25,2013-07-20 00:28:00,
2013-07-19 19:33:00,90.7,69.5,29.86,East,89,0.0,0.0,50,0.00,,,0.01,WeatherCatV1.15B25,2013-07-20 00:33:00,
2013-07-19 19:38:00,90.7,68.3,29.86,East,89,0.0,0.0,48,0.00,,,0.01,WeatherCatV1.15B25,2013-07-20 00:38:00,
2013-07-19 19:43:00,90.8,68.4,29.86,East,89,0.0,0.0,48,0.00,,,0.01,WeatherCatV1.15B25,2013-07-20 00:43:00,
2013-07-19 19:48:00,90.7,68.3,29.86,East,90,0.0,0.0,48,0.00,,,0.01,WeatherCatV1.15B25,2013-07-20 00:48:00,
2013-07-19 19:54:00,90.5,68.7,29.86,East,92,0.0,0.0,49,0.00,,,0.01,WeatherCatV1.15B25,2013-07-20 00:54:00,
2013-07-19 19:59:00,90.3,68.5,29.86,East,92,0.0,1.0,49,0.00,,,0.01,WeatherCatV1.15B25,2013-07-20 00:59:00,
2013-07-19 20:04:00,89.9,68.1,29.86,East,92,0.0,1.0,49,0.00,,,0.01,WeatherCatV1.15B25,2013-07-20 01:04:00,
2013-07-19 20:09:00,89.6,68.5,29.86,East,92,0.0,0.0,50,0.00,,,0.01,WeatherCatV1.15B25,2013-07-20 01:09:00,
2013-07-19 20:14:00,89.1,67.4,29.86,East,92,0.0,0.0,49,0.00,,,0.01,WeatherCatV1.15B25,2013-07-20 01:14:00,
2013-07-19 20:19:00,88.7,68.2,29.87,East,92,0.0,0.0,51,0.00,,,0.01,WeatherCatV1.15B25,2013-07-20 01:19:00,
2013-07-19 20:24:00,88.2,68.3,29.87,East,92,0.0,0.0,52,0.00,,,0.01,WeatherCatV1.15B25,2013-07-20 01:24:00,
2013-07-19 20:29:00,87.7,68.4,29.87,East,92,0.0,0.0,53,0.00,,,0.01,WeatherCatV1.15B25,2013-07-20 01:29:00,
2013-07-19 20:34:00,87.4,68.1,29.87,East,92,0.0,0.0,53,0.00,,,0.01,WeatherCatV1.15B25,2013-07-20 01:34:00,
2013-07-19 20:39:00,87.0,68.3,29.87,East,92,0.0,0.0,54,0.00,,,0.01,WeatherCatV1.15B25,2013-07-20 01:39:00,
2013-07-19 20:44:00,86.7,68.6,29.87,East,92,0.0,0.0,55,0.00,,,0.01,WeatherCatV1.15B25,2013-07-20 01:44:00,
2013-07-19 20:49:00,86.5,68.4,29.88,East,92,0.0,0.0,55,0.00,,,0.01,WeatherCatV1.15B25,2013-07-20 01:49:00,
2013-07-19 20:54:00,86.3,68.7,29.88,East,92,0.0,0.0,56,0.00,,,0.01,WeatherCatV1.15B25,2013-07-20 01:54:00,
2013-07-19 20:59:00,85.8,68.8,29.88,East,92,0.0,1.0,57,0.00,,,0.01,WeatherCatV1.15B25,2013-07-20 01:59:00,
2013-07-19 21:04:00,85.5,70.0,29.88,SE,126,0.0,2.0,60,0.00,,,0.01,WeatherCatV1.15B25,2013-07-20 02:04:00,
2013-07-19 21:09:00,85.3,70.3,29.88,South,170,0.0,5.0,61,0.00,,,0.01,WeatherCatV1.15B25,2013-07-20 02:09:00,
2013-07-19 21:14:00,85.2,71.2,29.88,South,169,0.0,1.0,63,0.00,,,0.01,WeatherCatV1.15B25,2013-07-20 02:14:00,
2013-07-19 21:19:00,85.0,71.4,29.89,South,173,1.0,5.0,64,0.00,,,0.01,WeatherCatV1.15B25,2013-07-20 02:19:00,
2013-07-19 21:24:00,84.7,71.6,29.89,SE,135,0.0,1.0,65,0.00,,,0.01,WeatherCatV1.15B25,2013-07-20 02:24:00,
2013-07-19 21:29:00,84.4,71.8,29.89,SSW,204,0.0,1.0,66,0.00,,,0.01,WeatherCatV1.15B25,2013-07-20 02:29:00,
2013-07-19 21:34:00,84.1,71.9,29.90,SSE,167,0.0,1.0,67,0.00,,,0.01,WeatherCatV1.15B25,2013-07-20 02:34:00,
2013-07-19 21:39:00,83.9,71.7,29.90,East,98,0.0,0.0,67,0.00,,,0.01,WeatherCatV1.15B25,2013-07-20 02:39:00,
2013-07-19 21:44:00,83.8,72.1,29.91,East,95,0.0,1.0,68,0.00,,,0.01,WeatherCatV1.15B25,2013-07-20 02:44:00,
2013-07-19 21:49:00,83.8,72.1,29.91,ESE,104,0.0,0.0,68,0.00,,,0.01,WeatherCatV1.15B25,2013-07-20 02:49:00,
2013-07-19 21:54:00,83.6,71.9,29.92,ESE,104,0.0,0.0,68,0.00,,,0.01,WeatherCatV1.15B25,2013-07-20 02:54:00,
2013-07-19 21:59:00,83.4,71.7,29.92,ESE,113,0.0,2.0,68,0.00,,,0.01,WeatherCatV1.15B25,2013-07-20 02:59:00,
2013-07-19 22:04:00,83.3,72.0,29.92,East,93,1.0,1.0,69,0.00,,,0.01,WeatherCatV1.15B25,2013-07-20 03:04:00,
2013-07-19 22:09:00,83.1,71.4,29.92,ESE,111,0.0,6.0,68,0.00,,,0.01,WeatherCatV1.15B25,2013-07-20 03:09:00,
2013-07-19 22:14:00,83.0,71.3,29.92,East,88,0.0,3.0,68,0.00,,,0.01,WeatherCatV1.15B25,2013-07-20 03:14:00,
2013-07-19 22:19:00,82.9,71.7,29.93,East,90,0.0,4.0,69,0.00,,,0.01,WeatherCatV1.15B25,2013-07-20 03:19:00,
2013-07-19 22:25:00,82.8,71.6,29.93,SSE,165,0.0,5.0,69,0.00,,,0.01,WeatherCatV1.15B25,2013-07-20 03:25:00,
2013-07-19 22:30:00,82.5,71.7,29.94,East,88,0.0,1.0,70,0.00,,,0.01,WeatherCatV1.15B25,2013-07-20 03:30:00,
2013-07-19 22:35:00,82.4,72.0,29.94,East,82,0.0,1.0,71,0.00,,,0.01,WeatherCatV1.15B25,2013-07-20 03:35:00,
2013-07-19 22:40:00,82.3,71.9,29.94,ESE,103,1.0,4.0,71,0.00,,,0.01,WeatherCatV1.15B25,2013-07-20 03:40:00,
2013-07-19 22:45:00,82.1,72.2,29.94,ESE,102,0.0,2.0,72,0.00,,,0.01,WeatherCatV1.15B25,2013-07-20 03:45:00,
2013-07-19 22:50:00,82.0,72.1,29.94,East,97,0.0,2.0,72,0.00,,,0.01,WeatherCatV1.15B25,2013-07-20 03:50:00,
2013-07-19 22:55:00,81.8,71.9,29.95,East,95,0.0,2.0,72,0.00,,,0.01,WeatherCatV1.15B25,2013-07-20 03:55:00,
2013-07-19 23:00:00,81.5,72.0,29.95,ESE,103,0.0,2.0,73,0.00,,,0.01,WeatherCatV1.15B25,2013-07-20 04:00:00,
2013-07-19 23:01:00,81.4,71.9,29.95,ESE,103,1.0,2.0,73,0.00,,,0.01,WeatherCatV1.15B25,2013-07-20 04:01:00,
2013-07-19 23:02:00,81.4,71.9,29.95,ESE,107,0.0,2.0,73,0.00,,,0.01,WeatherCatV1.15B25,2013-07-20 04:02:00,
2013-07-19 23:03:00,81.4,72.3,29.95,ESE,107,0.0,0.0,74,0.00,,,0.01,WeatherCatV1.15B25,2013-07-20 04:03:00,
2013-07-19 23:04:00,81.3,72.2,29.95,ESE,107,0.0,0.0,74,0.00,,,0.01,WeatherCatV1.15B25,2013-07-20 04:04:00,
2013-07-19 23:08:00,81.1,72.0,29.95,ESE,110,0.0,0.0,74,0.00,,,0.01,WeatherCatV1.15B25,2013-07-20 04:08:00,
2013-07-19 23:13:00,80.9,72.2,29.95,ESE,110,0.0,1.0,75,0.00,,,0.01,WeatherCatV1.15B25,2013-07-20 04:13:00,
2013-07-19 23:18:00,80.8,72.5,29.96,SE,126,0.0,1.0,76,0.00,,,0.01,WeatherCatV1.15B25,2013-07-20 04:18:00,
2013-07-19 23:23:00,80.7,72.0,29.96,SE,126,0.0,0.0,75,0.00,,,0.01,WeatherCatV1.15B25,2013-07-20 04:23:00,
2013-07-19 23:28:00,80.6,72.3,29.96,SSE,168,0.0,2.0,76,0.00,,,0.01,WeatherCatV1.15B25,2013-07-20 04:28:00,
2013-07-19 23:33:00,80.5,72.2,29.96,SSE,155,1.0,4.0,76,0.00,,,0.01,WeatherCatV1.15B25,2013-07-20 04:33:00,
2013-07-19 23:38:00,80.4,72.1,29.96,ESE,123,0.0,1.0,76,0.00,,,0.01,WeatherCatV1.15B25,2013-07-20 04:38:00,
2013-07-19 23:43:00,80.3,72.0,29.96,SSW,195,0.0,2.0,76,0.00,,,0.01,WeatherCatV1.15B25,2013-07-20 04:43:00,
2013-07-19 23:48:00,80.2,72.3,29.96,South,171,0.0,1.0,77,0.00,,,0.01,WeatherCatV1.15B25,2013-07-20 04:48:00,
2013-07-19 23:53:00,80.1,72.2,29.96,South,171,0.0,1.0,77,0.00,,,0.01,WeatherCatV1.15B25,2013-07-20 04:53:00,
2013-07-19 23:58:00,79.9,72.0,29.96,SSE,154,0.0,2.0,77,0.00,,,0.01,WeatherCatV1.15B25,2013-07-20 04:58:00,